Powrót do katalogu

THOR ABLESTAR DEB

AktywnyLEO
NORAD 657·DEBRIS·🇺🇸 United States

Wystrzelony Jun 29, 1961 z Cape Canaveral Space Force Station

Loading…

Następne Przeloty (najbliższe 24 godziny)

TLE

ŚwieżeSource: Space-Track

Epoka: Sep 14, 2026, 03:58 UTC

1 00657U 61015HJ  26257.16563433  .00000260  00000-0  68163-3 0  9999
2 00657  66.2492 165.1287 0342511 338.9185 173.1997 13.11890909116299

Śledź THOR ABLESTAR DEB w czasie rzeczywistym z AllMySat

Download on the App Store